Retour au catalogue

TIROS 5

ActifMétéoLEO
NORAD 309·PAYLOAD·🇺🇸 United States

Lancé Jun 19, 1962 depuis Cape Canaveral Space Force Station

Loading…

Prochains Passages (prochaines 24 heures)

TLE

FraisSource: Space-Track

Époque: Sep 14, 2026, 09:31 UTC

1 00309U 62025A   26257.39656862  .00000386  00000-0  96258-4 0  9995
2 00309  58.0880 251.7759 0185951  30.8203 330.3587 14.60725369394866

Suivez TIROS 5 en temps réel avec AllMySat

Download on the App Store